Regional Weather Roundup
Issued by NWS

Home | Current Version | Previous Version | Text Only | Print | Product List | Glossary On
Versions: 1 2 3 4 5 6 7 8 9 10 11 12 13 14 15 16 17 18 19 20 21 22 23 24 25 26 27 28 29 30 31 32 33 34 35 36 37 38 39 40 41 42 43 44 45 46 47 48 49 50
714
ASUS44 KLIX 301910
RWRLA
LOUISIANA WEATHER ROUNDUP
NATIONAL WEATHER SERVICE NEW ORLEANS LA
200 PM CDT THU OCT 30 2014

NOTE: "FAIR" INDICATES FEW OR NO CLOUDS BELOW 12,000 FEET WITH NO
      SIGNIFICANT WEATHER AND/OR OBSTRUCTIONS TO VISIBILITY.
      SKY/WX - SKY CONDITION AND SIGNIFICANT WEATHER.
      TMP - AIR TEMPERATURE.    DP   - DEWPOINT TEMPERATURE.
      RH  - RELATIVE HUMIDITY.  PRES - PRESSURE.
      HX  - HEAT INDEX.         WCI  - WIND CHILL INDEX.

*  THESE STATIONS ARE NOT NWS OR FAA STATIONS AND ARE NOT UNDER
   NWS QUALITY CONTROL.

LAZ040-048-061>063-065-066-069-302000-
SOUTHEAST LOUISIANA

CITY           SKY/WX    TMP DP  RH WIND       PRES   REMARKS
N.O. AUDUBON     N/A    N/A N/A N/A MISG        N/A
N.O. INTL ARPT MOSUNNY   72  43  35 N10       30.07F
N.O. LAKEFRONT SUNNY     73  43  33 N7        30.07F
N.O. DOWNTOWN* FAIR      72  43  35 N7        30.06F
SLIDELL        SUNNY     74  41  30 NE10      30.05F
BATON ROUGE    SUNNY     74  41  30 N7        30.07F
BOOTHVILLE     SUNNY     72  54  53 NE9       30.05F
BELLE CHASSE   SUNNY     73  42  32 NE6       30.05F
BOGALUSA*        N/A     74  34  22 N8        30.08F
NEW ROADS*     FAIR      72  41  33 N8        30.08F
GONZALES*      FAIR      73  42  32 NE6       30.06F
HAMMOND*       SUNNY     75  34  22 NE9       30.07F
HOUMA*         SUNNY     73  46  38 N12       30.05F
PORT FOURCHON* CLEAR     72  52  49 NE13G20   30.08F

$$

LAZ041-044-053-054-302000-
SOUTHWEST LOUISIANA

CITY           SKY/WX    TMP DP  RH WIND       PRES   REMARKS
LAKE CHARLES   SUNNY     74  46  36 N7        30.09F
LAFAYETTE      SUNNY     74  42  31 N8        30.08F
PATTERSON      SUNNY     75  45  33 NE10G16   30.09F
SALT POINT       N/A     75  47  36 N7        30.05F
NEW IBERIA     SUNNY     75  44  33 N7        30.08F
CHENAULT AIRPK SUNNY     73  45  35 NE5       30.10F

$$

LAZ027-028-302000-
CENTRAL LOUISIANA

CITY           SKY/WX    TMP DP  RH WIND       PRES   REMARKS
FORT POLK      SUNNY     71  42  35 VRB3      30.10F
ALEXANDRIA INT SUNNY     72  38  29 VRB3      30.09F
ALEXANDRIA     SUNNY     73  42  32 VRB3      30.10F

$$

LAZ001-002-302000-
NORTHWEST LOUISIANA

CITY           SKY/WX    TMP DP  RH WIND       PRES   REMARKS
SHREVEPORT     SUNNY     72  41  32 MISG      30.10F
BARKSDALE AFB  SUNNY     73  39  29 VRB6      30.11F
DTN SHREVEPORT SUNNY     71  40  32 S7        30.11F

$$

LAZ014-016-302000-
NORTHEAST LOUISIANA

CITY           SKY/WX    TMP DP  RH WIND       PRES   REMARKS
MONROE         SUNNY     71  45  39 VRB3      30.12F
TALLULAH       SUNNY     72  41  32 VRB5      30.10F

$$




USA.gov is the U.S. government's official web portal to all federal, state and local government web resources and services.